Live-Position
3D-Globus wird geladen...
Über OneWeb SL0295
Group: 3 satellites
Beschreibung wird geladen...
Nächste Überflüge
Passes for default location (London). Set your location on the main map for personalized predictions.
Höhenverlauf
Loading altitude history...
No altitude history available
Zweizeiliger Elementsatz
1 49084U 21075K 26105.76821382 .00000033 00000-0 51120-4 0 9990
2 49084 87.9185 18.2694 0001460 75.9840 284.1454 13.17648926225373
Epoch: 15. Apr. 2026 •
Age: 14 hours
Aktueller Status
Höhe 1215.6 km
Geschwindigkeit 7.25 km/s
Subsatellitenpunkt -54.58°S,
39.61°E
Startdatum 21. Aug. 2021
Alter 4.6 years
Typ internet
Startgruppe
Unknown Vehicle •
OneWeb Launch 9 •
34 satellites
OneWeb SL0285
49075
OneWeb SL0286 49076
OneWeb SL0287 49077
OneWeb SL0288 49078
OneWeb SL0289 49079
OneWeb SL0290 49080
OneWeb SL0291 49081
OneWeb SL0293 49082
OneWeb SL0294 49083
OneWeb SL0296 49085
OneWeb SL0297 49086
OneWeb SL0298 49087
OneWeb SL0299 49088
OneWeb SL0300 49089
OneWeb SL0301 49090
OneWeb SL0302 49091
OneWeb SL0304 49092
OneWeb SL0305 49093
OneWeb SL0308 49094
OneWeb SL0309 49095
...and 13 more
Technische Details
Klassifizierung Payload
Masse 148.00 kg
Trockenmasse 140.00 kg
Gesamtmasse 148.00 kg
Länge 1.30 m
Durchmesser 1.00 m
Spannweite 5.00 m
Form Trapezoid+2 pan
Hersteller ONEWUS
Bus-Typ ARROW
Phasenstatus In Orbit
Besitzer/Staat ONEWEBN/UK
Most Searched
Loading...